Cosmos 2369 Rocket - Orbit

View from above orbital plane
View from above orbital plane
View from above satellite
View from above satellite

Ground track
Ground track

The orbit data is extracted from the following two-line orbital elements,

1 26070U 00006B   13144.14494828 -.00000225  00000-0 -90967-4 0   845
2 26070 071.0009 197.1305 0014269 091.5262 268.7495 14.15283813687353
Epoch (UTC): 24 May 2013 03:28:43
Eccentricity: 0.0014269
inclination: 71.0009°
perigee height: 831 km
apogee height: 851 km
right ascension of ascending node: 197.1305°
argument of perigee: 91.5262°
revolutions per day: 14.15283813
mean anomaly at epoch: 268.7495°
orbit number at epoch: 68735

The dashed part of the orbit path shows where the satellite is in the earth's shadow,  

Developed and maintained by Chris Peat, Heavens-Above GmbH. Please read the updated FAQ before sending e-mail. Imprint. DLR